Weather History for North Bend, OR

Change the Weather History Date:

Wednesday, September 12, 2012

  Actual Average Record
Temperature  
Mean Temperature 58 °F 58 °F  
Max Temperature 70 °F 65 °F 89 °F (1988)
Min Temperature 46 °F 51 °F 33 °F (1921)
Degree Days  
Heating Degree Days 7 7  
Month to date heating degree days 97 79  
Since 1 July heating degree days 428 458  
Cooling Degree Days 0 0  
Month to date cooling degree days 0 0  
Year to date cooling degree days 0 1  
Growing Degree Days 8 (Base 50)    
Moisture  
Dew Point 48 °F    
Average Humidity 75    
Maximum Humidity 100    
Minimum Humidity 45    
Precipitation  
Precipitation 0.00 in 0.04 in 0.68 in (1985)
Month to date precipitation 0.00 0.47  
Year to date precipitation 28.80 37.71  
Sea Level Pressure  
Sea Level Pressure 30.08 in    
Wind  
Wind Speed 8 mph (North)    
Max Wind Speed 21 mph    
Max Gust Speed 30 mph    
Visibility 10 miles    
Events      
T = Trace of Precipitation, MM = Missing Value Source: NWS Daily Summary

Daily Weather History Graph

Daily Weather History Graph

Search for Another Location

Airport:

Trip Planner

Search our weather history database for the weather conditions in past years. The results will help you decide how hot, cold, wet, or windy it might be!

Date:

Astronomy

Sep. 12, 2012 Rise Set
Actual Time 6:53 AM PDT 7:31 PM PDT
Civil Twilight 6:24 AM PDT 8:00 PM PDT
Nautical Twilight 5:50 AM PDT 8:34 PM PDT
Astronomical Twilight 5:15 AM PDT 9:09 PM PDT
Moon 3:11 AM PDT (9/12) 5:26 PM PDT (9/12)
Length of Visible Light 13h 35m
Length of Day
12h 37m
Waning Crescent, 13% of the Moon is Illuminated
Sep 12
Waning Crescent
Sep 15
New
Sep 22
First Quarter
Sep 29
Full
Oct 8
Last Quarter

Hourly Weather History & Observations

Time (PDT) Temp. Windchill Dew Point Humidity Pressure Visibility Wind Dir Wind Speed Gust Speed Precip Events Conditions
12:15 AM 48.2 °F - 46.4 °F 93% 30.12 in 4.0 mi Calm Calm - N/A   Clear
12:35 AM 50.0 °F - 48.2 °F 94% 30.12 in 5.0 mi Calm Calm - N/A   Clear
12:55 AM 50.0 °F - 48.2 °F 94% 30.12 in 4.0 mi North 3.5 mph - N/A   Clear
1:15 AM 50.0 °F - 48.2 °F 94% 30.12 in 5.0 mi North 6.9 mph - N/A   Clear
1:35 AM 50.0 °F - 48.2 °F 94% 30.12 in 7.0 mi North 4.6 mph - N/A   Clear
1:55 AM 50.0 °F - 48.2 °F 94% 30.11 in 7.0 mi North 4.6 mph - N/A   Clear
2:15 AM 50.0 °F - 48.2 °F 94% 30.11 in 8.0 mi North 3.5 mph - N/A   Clear
2:35 AM 50.0 °F - 48.2 °F 94% 30.11 in 9.0 mi North 4.6 mph - N/A   Clear
2:55 AM 48.2 °F - 46.4 °F 93% 30.11 in 10.0 mi North 5.8 mph - N/A   Clear
3:15 AM 48.2 °F - 48.2 °F 100% 30.11 in 10.0 mi North 4.6 mph - N/A   Clear
3:35 AM 48.2 °F - 48.2 °F 100% 30.10 in 10.0 mi NNE 5.8 mph - N/A   Clear
3:55 AM 48.2 °F - 48.2 °F 100% 30.10 in 10.0 mi NNE 5.8 mph - N/A   Clear
4:15 AM 48.2 °F - 46.4 °F 93% 30.10 in 10.0 mi Calm Calm - N/A   Clear
4:35 AM 48.2 °F - 48.2 °F 100% 30.10 in 10.0 mi NNE 3.5 mph - N/A   Clear
4:55 AM 46.4 °F - 46.4 °F 100% 30.10 in 10.0 mi Calm Calm - N/A   Clear
5:15 AM 46.4 °F 44.3 °F 44.6 °F 93% 30.10 in 10.0 mi North 4.6 mph - N/A   Clear
5:35 AM 46.4 °F - 46.4 °F 100% 30.10 in 10.0 mi Calm Calm - N/A   Clear
5:55 AM 46.4 °F 44.3 °F 46.4 °F 100% 30.11 in 10.0 mi North 4.6 mph - N/A   Clear
6:15 AM 46.4 °F 43.5 °F 46.4 °F 100% 30.11 in 10.0 mi NNE 5.8 mph - N/A   Clear
6:35 AM 46.4 °F 42.9 °F 46.4 °F 100% 30.11 in 10.0 mi NNE 6.9 mph - N/A   Clear
6:55 AM 46.4 °F 42.9 °F 46.4 °F 100% 30.11 in 10.0 mi NNE 6.9 mph - N/A   Clear
7:15 AM 48.2 °F - 46.4 °F 93% 30.12 in 10.0 mi NNE 8.1 mph - N/A   Clear
7:35 AM 48.2 °F - 46.4 °F 93% 30.12 in 10.0 mi NNE 5.8 mph - N/A   Clear
7:55 AM 48.2 °F - 48.2 °F 100% 30.12 in 10.0 mi NNE 6.9 mph - N/A   Clear
8:15 AM 50.0 °F - 48.2 °F 94% 30.12 in 10.0 mi NNE 6.9 mph - N/A   Clear
8:35 AM 51.8 °F - 48.2 °F 88% 30.12 in 10.0 mi NNE 4.6 mph - N/A   Clear
8:55 AM 53.6 °F - 50.0 °F 88% 30.12 in 10.0 mi NNE 4.6 mph - N/A   Clear
9:15 AM 55.4 °F - 50.0 °F 82% 30.12 in 10.0 mi Calm Calm - N/A   Clear
9:35 AM 57.2 °F - 48.2 °F 72% 30.12 in 10.0 mi NE 4.6 mph - N/A   Clear
9:55 AM 60.8 °F - 48.2 °F 63% 30.11 in 10.0 mi NNE 5.8 mph - N/A   Clear
10:15 AM 62.6 °F - 48.2 °F 59% 30.11 in 10.0 mi NNE 5.8 mph - N/A   Clear
10:35 AM 64.4 °F - 48.2 °F 56% 30.11 in 10.0 mi North 6.9 mph - N/A   Clear
10:55 AM 66.2 °F - 48.2 °F 52% 30.10 in 10.0 mi North 5.8 mph - N/A   Clear
11:15 AM 66.2 °F - 48.2 °F 52% 30.10 in 10.0 mi North 8.1 mph - N/A   Clear
11:35 AM 69.8 °F - 48.2 °F 46% 30.09 in 10.0 mi NNW 8.1 mph - N/A   Clear
11:55 AM 68.0 °F - 48.2 °F 49% 30.08 in 10.0 mi North 12.7 mph - N/A   Clear
12:15 PM 69.8 °F - 48.2 °F 46% 30.08 in 10.0 mi North 12.7 mph - N/A   Clear
12:35 PM 69.8 °F - 48.2 °F 46% 30.08 in 10.0 mi North 13.8 mph - N/A   Clear
12:55 PM 68.0 °F - 48.2 °F 49% 30.07 in 10.0 mi NNW 15.0 mph - N/A   Clear
1:15 PM 68.0 °F - 48.2 °F 49% 30.07 in 10.0 mi NNW 16.1 mph 21.9 mph N/A   Clear
1:35 PM 66.2 °F - 48.2 °F 52% 30.06 in 10.0 mi North 19.6 mph - N/A   Clear
1:55 PM 68.0 °F - 46.4 °F 46% 30.06 in 10.0 mi North 19.6 mph 23.0 mph N/A   Clear
2:15 PM 68.0 °F - 46.4 °F 46% 30.05 in 10.0 mi North 17.3 mph - N/A   Clear
2:55 PM 68.0 °F - 46.4 °F 46% 30.04 in 10.0 mi North 20.7 mph 29.9 mph N/A   Clear
3:15 PM 68.0 °F - 46.4 °F 46% 30.04 in 10.0 mi North 19.6 mph - N/A   Clear
3:35 PM 68.0 °F - 46.4 °F 46% 30.04 in 10.0 mi North 21.9 mph - N/A   Clear
3:55 PM 68.0 °F - 46.4 °F 46% 30.04 in 10.0 mi North 20.7 mph 26.5 mph N/A   Clear
4:15 PM 66.2 °F - 46.4 °F 49% 30.03 in 10.0 mi North 21.9 mph 27.6 mph N/A   Clear
4:35 PM 66.2 °F - 46.4 °F 49% 30.03 in 10.0 mi North 19.6 mph - N/A   Clear
4:55 PM 66.2 °F - 46.4 °F 49% 30.03 in 10.0 mi North 18.4 mph - N/A   Clear
5:15 PM 68.0 °F - 46.4 °F 46% 30.03 in 10.0 mi North 12.7 mph - N/A   Clear
5:35 PM 68.0 °F - 46.4 °F 46% 30.03 in 10.0 mi North 11.5 mph - N/A   Clear
5:55 PM 66.2 °F - 48.2 °F 52% 30.03 in 10.0 mi North 12.7 mph - N/A   Clear
6:15 PM 64.4 °F - 48.2 °F 56% 30.03 in 10.0 mi NNW 10.4 mph - N/A   Clear
6:35 PM 64.4 °F - 48.2 °F 56% 30.04 in 10.0 mi Calm Calm - N/A   Clear
6:55 PM 62.6 °F - 48.2 °F 59% 30.04 in 8.0 mi Calm Calm - N/A   Clear
7:15 PM 60.8 °F - 48.2 °F 63% 30.04 in 10.0 mi WSW 4.6 mph - N/A   Clear
7:35 PM 57.2 °F - 48.2 °F 72% 30.05 in 10.0 mi WSW 5.8 mph - N/A   Clear
7:55 PM 55.4 °F - 48.2 °F 77% 30.06 in 10.0 mi SSW 3.5 mph - N/A   Clear
8:15 PM 55.4 °F - 48.2 °F 77% 30.07 in 10.0 mi SSW 6.9 mph - N/A   Clear
8:35 PM 53.6 °F - 48.2 °F 82% 30.08 in 10.0 mi South 4.6 mph - N/A   Clear
8:55 PM 53.6 °F - 48.2 °F 82% 30.08 in 10.0 mi South 4.6 mph - N/A   Clear
9:15 PM 53.6 °F - 48.2 °F 82% 30.09 in 10.0 mi South 4.6 mph - N/A   Clear
9:35 PM 53.6 °F - 48.2 °F 82% 30.09 in 10.0 mi South 3.5 mph - N/A   Clear
9:55 PM 53.6 °F - 48.2 °F 82% 30.09 in 10.0 mi Calm Calm - N/A   Clear
10:15 PM 55.4 °F - 48.2 °F 77% 30.08 in 10.0 mi Calm Calm - N/A   Clear
10:35 PM 55.4 °F - 48.2 °F 77% 30.08 in 10.0 mi Calm Calm - N/A   Clear
10:55 PM 53.6 °F - 48.2 °F 82% 30.08 in 10.0 mi West 3.5 mph - N/A   Clear
11:15 PM 51.8 °F - 50.0 °F 94% 30.08 in 10.0 mi Calm Calm - N/A   Clear
11:35 PM 53.6 °F - 50.0 °F 88% 30.08 in 10.0 mi Calm Calm - N/A   Clear
11:55 PM 51.8 °F - 50.0 °F 94% 30.08 in 10.0 mi Calm Calm - N/A   Clear